This demonstration page uses our WeatherBlox Daily Observations layout. Learn more.

Left ArrowRight Arrow

47.50024, -111.30081

Hourly Observations for April 21, 2022

Temp ( °F °C ) Dew Point ( °F °C ) Humidity (%) Winds ( mph kmh ) Pressure ( in mb ) Visibility ( mi km ) Precip ( " mm )
12:53 am 00:53 Clear 30 -1.1 20 -6.7 66 66 E 9 15 29.98 1015 10 16 0.00 0.00
1:53 am 01:53 Partly Cloudy 30 -1.1 20 -6.7 66 66 E 13 20 29.96 1014 10 16 0.00 0.00
2:53 am 02:53 Clear 30 -1.1 20 -6.7 66 66 E 7 11 29.91 1013 10 16 0.00 0.00
3:53 am 03:53 Partly Cloudy 32 0 20 -6.7 61 61 ESE 12 19 29.91 1013 10 16 0.00 0.00
4:53 am 04:53 Cloudy 32 0 21 -6.1 64 64 E 10 17 29.91 1013 10 16 0.00 0.00
5:53 am 05:53 Cloudy 31 -0.6 21 -6.1 67 67 NNE 3 6 29.90 1013 10 16 0.00 0.00
6:53 am 06:53 Cloudy 29 -1.7 23 -5 78 78 SW 7 11 29.91 1013 10 16 0.00 0.00
7:53 am 07:53 Cloudy 30 -1.1 23 -5 75 75 SSE 3 6 29.91 1013 10 16 0.00 0.00
8:53 am 08:53 Cloudy 34 1.1 23 -5 64 64 ESE 10 17 29.88 1012 10 16 0.00 0.00
9:53 am 09:53 Cloudy 35 1.7 24 -4.4 64 64 NNE 6 9 29.87 1012 10 16 0.00 0.00
10:53 am 10:53 Mostly Cloudy 41 5 24 -4.4 51 51 ENE 5 7 29.85 1011 10 16 0.00 0.00
11:53 am 11:53 Mostly Cloudy 46 7.8 25 -3.9 44 44 VRB 3 6 29.82 1010 10 16 0.00 0.00
12:24 pm 12:24 Mostly Cloudy 50 10 27 -2.8 41 41 SSW 9 15 29.72 1006 10 16 0.00 0.00
12:53 pm 12:53 Mostly Cloudy 52 11.1 28 -2.2 40 40 SW 13 20 29.79 1009 10 16 0.00 0.00
1:53 pm 13:53 Mostly Cloudy 53 11.7 29 -1.7 40 40 W 14 22 29.77 1008 10 16 0.00 0.00
2:10 pm 14:10 Cloudy 53 11.7 29 -1.7 40 40 W 13 20 29.67 1005 10 16 0.00 0.00
2:53 pm 14:53 Mostly Cloudy 53 11.7 29 -1.7 40 40 SSW 9 15 29.77 1008 10 16 0.00 0.00
3:53 pm 15:53 Cloudy 54 12.2 29 -1.7 38 38 SW 10 17 29.78 1008 10 16 0.00 0.00
4:53 pm 16:53 Mostly Sunny 54 12.2 28 -2.2 37 37 WSW 13 20 29.78 1009 10 16 0.00 0.00
5:53 pm 17:53 Partly Cloudy 53 11.7 28 -2.2 38 38 WNW 6 9 29.79 1009 10 16 0.00 0.00
6:53 pm 18:53 Cloudy 53 11.7 28 -2.2 38 38 WNW 6 9 29.80 1009 10 16 0.00 0.00
7:53 pm 19:53 Cloudy 50 10 29 -1.7 44 44 Calm 29.83 1010 10 16 0.00 0.00
8:43 pm 20:43 Cloudy 47 8.3 29 -1.7 50 50 E 6 9 29.76 1008 10 16 0.00 0.00
8:53 pm 20:53 Cloudy 47 8.3 28 -2.2 48 48 E 8 13 29.83 1010 10 16 0.00 0.00
9:53 pm 21:53 Clear 43 6.1 28 -2.2 56 56 E 10 17 29.84 1011 10 16 0.00 0.00
10:53 pm 22:53 Clear 40 4.4 27 -2.8 60 60 ENE 3 6 29.81 1010 10 16 0.00 0.00
11:53 pm 23:53 Clear 40 4.4 31 -0.6 70 70 SSW 10 17 29.82 1010 10 16 0.00 0.00

Powered by AerisWeather